TSC158 CYYZ-SKCG

Flight info

Callsign TSC158
Flight time 4h 51m
Altitude 16000
Route KEPTA3 WOZEE T608 UKNIX/N0453F340 DCT PYTON Q129 AARNN Q113 RAYVO Q87 VIYAP/N0453F360 Q87 ZERBO/N0449F350 Q87 MATLK Q77 OCTAL Y280 CANVI Y297 URSUS UP406 PUTUL/N0452F370 UP406 UBSUX UBSUX2A
Aircraft A321/M-SDE3FGHIRWY/LB1

Departure

Time 2026-05-06 21:46
Airport Toronto Pearson International Airport (CYYZ)

Arrival

Time 2026-05-07 02:38
Airport Rafael Nuñez International Airport (SKCG)
Time Latitude Longitude Altitude Speed Heading
2026-05-06 21:11 43.68208 -79.62085 562 ft 0 kts 69°
2026-05-06 21:31 43.68202 -79.62110 566 ft 4 kts 73°
2026-05-06 21:31 43.68193 -79.62143 564 ft 2 kts 59°
2026-05-06 21:31 43.68178 -79.62169 567 ft 4 kts 23°
2026-05-06 21:31 43.68156 -79.62168 570 ft 4 kts 322°
2026-05-06 21:32 43.68137 -79.62143 568 ft 3 kts 316°
2026-05-06 21:32 43.68135 -79.62139 568 ft 0 kts 316°
2026-05-06 21:36 43.68147 -79.62155 569 ft 6 kts 316°
2026-05-06 21:36 43.68198 -79.62221 564 ft 13 kts 316°
2026-05-06 21:36 43.68261 -79.62304 567 ft 11 kts 316°
2026-05-06 21:36 43.68285 -79.62381 561 ft 8 kts 250°
2026-05-06 21:37 43.68263 -79.62444 562 ft 8 kts 264°
2026-05-06 21:37 43.68315 -79.62536 569 ft 14 kts 315°
2026-05-06 21:37 43.68384 -79.62627 569 ft 13 kts 317°
2026-05-06 21:37 43.68450 -79.62711 572 ft 12 kts 317°
2026-05-06 21:38 43.68517 -79.62799 562 ft 16 kts 317°
2026-05-06 21:38 43.68610 -79.62919 563 ft 21 kts 317°
2026-05-06 21:38 43.68724 -79.63066 570 ft 22 kts 316°
2026-05-06 21:38 43.68833 -79.63210 565 ft 21 kts 316°
2026-05-06 21:39 43.68934 -79.63341 572 ft 19 kts 317°
2026-05-06 21:39 43.69025 -79.63459 571 ft 17 kts 316°
2026-05-06 21:39 43.69083 -79.63557 571 ft 9 kts 277°
2026-05-06 21:39 43.69056 -79.63622 568 ft 6 kts 228°
2026-05-06 21:40 43.69021 -79.63673 572 ft 9 kts 226°
2026-05-06 21:40 43.68965 -79.63755 574 ft 15 kts 226°
2026-05-06 21:40 43.68876 -79.63885 572 ft 22 kts 227°
2026-05-06 21:40 43.68752 -79.64067 569 ft 29 kts 226°
2026-05-06 21:41 43.68611 -79.64269 570 ft 29 kts 226°
2026-05-06 21:41 43.68482 -79.64455 567 ft 25 kts 227°
2026-05-06 21:41 43.68371 -79.64617 572 ft 21 kts 226°
2026-05-06 21:41 43.68311 -79.64702 573 ft 5 kts 226°
2026-05-06 21:42 43.68295 -79.64726 573 ft 2 kts 226°
2026-05-06 21:42 43.68270 -79.64762 574 ft 11 kts 226°
2026-05-06 21:42 43.68185 -79.64884 572 ft 24 kts 226°
2026-05-06 21:42 43.68063 -79.65062 568 ft 26 kts 226°
2026-05-06 21:43 43.67945 -79.65233 565 ft 24 kts 226°
2026-05-06 21:43 43.67834 -79.65394 566 ft 22 kts 226°
2026-05-06 21:43 43.67735 -79.65537 568 ft 19 kts 226°
2026-05-06 21:43 43.67648 -79.65664 574 ft 18 kts 226°
2026-05-06 21:44 43.67563 -79.65786 570 ft 17 kts 226°
2026-05-06 21:44 43.67476 -79.65910 568 ft 18 kts 226°
2026-05-06 21:44 43.67390 -79.66037 573 ft 18 kts 226°
2026-05-06 21:44 43.67305 -79.66160 567 ft 11 kts 226°
2026-05-06 21:45 43.67287 -79.66250 567 ft 10 kts 294°
2026-05-06 21:45 43.67349 -79.66329 560 ft 13 kts 327°
2026-05-06 21:45 43.67428 -79.66366 565 ft 12 kts 16°
2026-05-06 21:45 43.67505 -79.66277 563 ft 22 kts 45°
2026-05-06 21:46 43.67769 -79.65894 567 ft 89 kts 46°
2026-05-06 21:46 43.68331 -79.65081 568 ft 142 kts 46°
2026-05-06 21:46 43.69107 -79.63957 718 ft 170 kts 46°
2026-05-06 21:46 43.69910 -79.62811 1433 ft 165 kts 38°
2026-05-06 21:47 43.70833 -79.61850 2032 ft 166 kts 31°
2026-05-06 21:47 43.71785 -79.60942 2495 ft 168 kts 32°
2026-05-06 21:47 43.72735 -79.59989 2966 ft 169 kts 33°
2026-05-06 21:47 43.73686 -79.59007 3346 ft 175 kts 34°
2026-05-06 21:48 43.74686 -79.57899 3561 ft 194 kts 43°
2026-05-06 21:48 43.75265 -79.56126 3761 ft 219 kts 84°
2026-05-06 21:48 43.74828 -79.54048 3936 ft 240 kts 127°
2026-05-06 21:48 43.73657 -79.52268 4100 ft 263 kts 135°
2026-05-06 21:49 43.72279 -79.50495 4599 ft 274 kts 139°
2026-05-06 21:49 43.70844 -79.48749 5364 ft 276 kts 140°
2026-05-06 21:49 43.69380 -79.46996 6125 ft 280 kts 141°
2026-05-06 21:49 43.67912 -79.45200 6877 ft 283 kts 141°
2026-05-06 21:50 43.66442 -79.43368 7576 ft 288 kts 141°
2026-05-06 21:50 43.64955 -79.41475 8210 ft 293 kts 141°
2026-05-06 21:50 43.63459 -79.39538 8892 ft 297 kts 141°
2026-05-06 21:50 43.61969 -79.37523 9586 ft 302 kts 140°
2026-05-06 21:51 43.60478 -79.35449 10194 ft 308 kts 140°
2026-05-06 21:51 43.58915 -79.33272 10369 ft 331 kts 140°
2026-05-06 21:51 43.57239 -79.30950 10501 ft 352 kts 140°
2026-05-06 21:51 43.55479 -79.28518 10889 ft 363 kts 140°
2026-05-06 21:52 43.53685 -79.26041 11500 ft 367 kts 140°
2026-05-06 21:52 43.51879 -79.23544 12096 ft 370 kts 140°
2026-05-06 21:52 43.50049 -79.21023 12697 ft 373 kts 140°
2026-05-06 21:52 43.48203 -79.18490 13303 ft 377 kts 141°
2026-05-06 21:53 43.46337 -79.15934 13875 ft 380 kts 141°
2026-05-06 21:53 43.44400 -79.13451 14393 ft 379 kts 148°
2026-05-06 21:53 43.42223 -79.11445 14917 ft 375 kts 158°
2026-05-06 21:53 43.39943 -79.09691 15465 ft 377 kts 158°
2026-05-06 21:54 43.37678 -79.07949 16012 ft 379 kts 158°
2026-05-06 21:54 43.35373 -79.06170 16539 ft 381 kts 158°
2026-05-06 21:54 43.33062 -79.04380 17108 ft 381 kts 158°
2026-05-06 21:54 43.30755 -79.02588 17728 ft 380 kts 158°
2026-05-06 21:55 43.28450 -79.00801 18273 ft 381 kts 159°
2026-05-06 21:55 43.26140 -78.99011 18733 ft 382 kts 159°
2026-05-06 21:55 43.23816 -78.97217 19141 ft 385 kts 159°
2026-05-06 21:55 43.21471 -78.95412 19532 ft 388 kts 159°
2026-05-06 21:56 43.19105 -78.93593 19924 ft 391 kts 159°
2026-05-06 21:56 43.16721 -78.91766 20321 ft 395 kts 159°
2026-05-06 21:56 43.14311 -78.89917 20707 ft 398 kts 159°
2026-05-06 21:56 43.11888 -78.88055 21078 ft 401 kts 159°
2026-05-06 21:57 43.09444 -78.86179 21452 ft 404 kts 159°
2026-05-06 21:57 43.06979 -78.84290 21768 ft 408 kts 159°
2026-05-06 21:57 43.04483 -78.82384 22109 ft 412 kts 159°
2026-05-06 21:57 43.01967 -78.80467 22459 ft 416 kts 159°
2026-05-06 21:58 42.99430 -78.78535 22824 ft 419 kts 159°
2026-05-06 21:58 42.96879 -78.76587 23161 ft 422 kts 158°
2026-05-06 21:58 42.94200 -78.74504 21439 ft 466 kts 159°
2026-05-06 21:58 42.91321 -78.72829 22596 ft 434 kts 173°
2026-05-06 21:59 42.88448 -78.72414 23599 ft 406 kts 188°
2026-05-06 21:59 42.85639 -78.72445 24094 ft 403 kts 188°
2026-05-06 21:59 42.82828 -78.72362 24482 ft 406 kts 186°
2026-05-06 21:59 42.79998 -78.72125 24830 ft 409 kts 184°
2026-05-06 22:00 42.77151 -78.71759 25163 ft 413 kts 183°
2026-05-06 22:00 42.74288 -78.71320 25472 ft 415 kts 183°
2026-05-06 22:00 42.71411 -78.70856 25791 ft 417 kts 183°
2026-05-06 22:00 42.68523 -78.70392 26090 ft 418 kts 184°
2026-05-06 22:01 42.65627 -78.69948 26347 ft 420 kts 185°
2026-05-06 22:01 42.62716 -78.69524 26618 ft 422 kts 186°
2026-05-06 22:01 42.59791 -78.69111 26896 ft 424 kts 186°
2026-05-06 22:01 42.56850 -78.68704 27182 ft 426 kts 186°
2026-05-06 22:02 42.53901 -78.68298 27447 ft 427 kts 186°
2026-05-06 22:02 42.50932 -78.67889 27695 ft 429 kts 187°
2026-05-06 22:02 42.47952 -78.67477 27948 ft 431 kts 187°
2026-05-06 22:02 42.44964 -78.67061 28141 ft 433 kts 188°
2026-05-06 22:03 42.41965 -78.66639 28408 ft 434 kts 188°
2026-05-06 22:03 42.38959 -78.66214 28686 ft 435 kts 188°
2026-05-06 22:03 42.35942 -78.65791 28974 ft 436 kts 189°
2026-05-06 22:03 42.32918 -78.65368 29236 ft 438 kts 189°
2026-05-06 22:04 42.29882 -78.64948 29500 ft 439 kts 189°
2026-05-06 22:04 42.26835 -78.64526 29755 ft 441 kts 189°
2026-05-06 22:04 42.23783 -78.64100 30059 ft 441 kts 189°
2026-05-06 22:04 42.20731 -78.63670 30298 ft 441 kts 189°
2026-05-06 22:05 42.17726 -78.63246 30612 ft 440 kts 189°
2026-05-06 22:05 42.14684 -78.62819 30855 ft 439 kts 190°
2026-05-06 22:05 42.11649 -78.62397 31147 ft 438 kts 190°
2026-05-06 22:05 42.08620 -78.61978 31420 ft 437 kts 190°
2026-05-06 22:06 42.05592 -78.61560 31702 ft 437 kts 190°
2026-05-06 22:06 42.02568 -78.61145 31913 ft 437 kts 191°
2026-05-06 22:06 41.99543 -78.60733 32138 ft 438 kts 191°
2026-05-06 22:06 41.96513 -78.60319 32401 ft 437 kts 191°
2026-05-06 22:07 41.93486 -78.59902 32652 ft 437 kts 191°
2026-05-06 22:07 41.90459 -78.59485 32858 ft 437 kts 191°
2026-05-06 22:07 41.84404 -78.58651 32924 ft 437 kts 191°
2026-05-06 22:08 41.78346 -78.57817 32924 ft 439 kts 191°
2026-05-06 22:08 41.72273 -78.56990 32924 ft 439 kts 191°
2026-05-06 22:09 41.66195 -78.56161 32928 ft 439 kts 191°
2026-05-06 22:09 41.61142 -78.55471 32898 ft 439 kts 191°
2026-05-06 22:10 41.55048 -78.54643 33094 ft 441 kts 191°
2026-05-06 22:10 41.51998 -78.54227 33366 ft 441 kts 191°
2026-05-06 22:10 41.48948 -78.53809 33641 ft 440 kts 191°
2026-05-06 22:11 41.45901 -78.53394 33904 ft 440 kts 191°
2026-05-06 22:11 41.42856 -78.52981 34117 ft 440 kts 191°
2026-05-06 22:11 41.39811 -78.52569 34250 ft 440 kts 191°
2026-05-06 22:11 41.36766 -78.52158 34447 ft 440 kts 191°
2026-05-06 22:12 41.33725 -78.51746 34632 ft 440 kts 191°
2026-05-06 22:12 41.30680 -78.51331 34817 ft 440 kts 191°
2026-05-06 22:12 41.24602 -78.50501 34933 ft 437 kts 191°
2026-05-06 22:13 41.18556 -78.49681 34874 ft 436 kts 191°
2026-05-06 22:13 41.12515 -78.48874 34924 ft 436 kts 191°
2026-05-06 22:14 41.06473 -78.48077 34924 ft 436 kts 191°
2026-05-06 22:14 41.00469 -78.47269 34926 ft 437 kts 191°
2026-05-06 22:15 40.94426 -78.46456 34889 ft 436 kts 191°
2026-05-06 22:15 40.88385 -78.45654 34898 ft 436 kts 191°
2026-05-06 22:16 40.82340 -78.44851 34907 ft 437 kts 191°
2026-05-06 22:16 40.76291 -78.44043 34835 ft 437 kts 191°
2026-05-06 22:17 40.70236 -78.43236 34906 ft 438 kts 191°
2026-05-06 22:17 40.64171 -78.42436 34914 ft 438 kts 191°
2026-05-06 22:18 40.58113 -78.41631 34922 ft 437 kts 191°
2026-05-06 22:18 40.52062 -78.40827 34896 ft 437 kts 191°
2026-05-06 22:19 40.46016 -78.40029 34913 ft 436 kts 191°
2026-05-06 22:19 40.39975 -78.39245 34914 ft 436 kts 191°
2026-05-06 22:20 40.33977 -78.38464 34919 ft 436 kts 191°
2026-05-06 22:20 40.27937 -78.37675 34909 ft 437 kts 191°
2026-05-06 22:21 40.21873 -78.36879 34931 ft 438 kts 191°
2026-05-06 22:21 40.15809 -78.36079 34951 ft 438 kts 191°
2026-05-06 22:22 40.09754 -78.35287 34945 ft 437 kts 191°
2026-05-06 22:22 40.03703 -78.34500 34905 ft 437 kts 191°
2026-05-06 22:23 39.97651 -78.33715 34904 ft 437 kts 191°
2026-05-06 22:23 39.91607 -78.32929 34900 ft 436 kts 191°
2026-05-06 22:24 39.85567 -78.32144 34866 ft 437 kts 191°
2026-05-06 22:24 39.79518 -78.31368 34863 ft 437 kts 191°
2026-05-06 22:25 39.73468 -78.30591 34864 ft 437 kts 191°
2026-05-06 22:25 39.67416 -78.29872 34871 ft 435 kts 192°
2026-05-06 22:26 39.61396 -78.29369 34843 ft 434 kts 193°
2026-05-06 22:26 39.55355 -78.28910 34852 ft 436 kts 193°
2026-05-06 22:27 39.49292 -78.28397 34854 ft 437 kts 192°
2026-05-06 22:27 39.43227 -78.27853 34827 ft 437 kts 192°
2026-05-06 22:28 39.37170 -78.27308 34842 ft 436 kts 192°
2026-05-06 22:28 39.31157 -78.26788 34852 ft 436 kts 193°
2026-05-06 22:29 39.25098 -78.26271 34859 ft 436 kts 193°
2026-05-06 22:29 39.19038 -78.25749 34850 ft 436 kts 192°
2026-05-06 22:30 39.12961 -78.25220 34879 ft 438 kts 192°
2026-05-06 22:30 39.06889 -78.24689 34879 ft 437 kts 192°
2026-05-06 22:31 39.00827 -78.24173 34857 ft 437 kts 192°
2026-05-06 22:31 38.94767 -78.23661 34822 ft 437 kts 191°
2026-05-06 22:32 38.88698 -78.23139 34827 ft 437 kts 191°
2026-05-06 22:32 38.82624 -78.22615 34833 ft 438 kts 191°
2026-05-06 22:33 38.76542 -78.22089 34839 ft 438 kts 191°
2026-05-06 22:33 38.70441 -78.21574 34830 ft 442 kts 191°
2026-05-06 22:34 38.64287 -78.21056 34853 ft 444 kts 191°
2026-05-06 22:34 38.58128 -78.20521 34858 ft 444 kts 191°
2026-05-06 22:35 38.51966 -78.19984 34829 ft 444 kts 191°
2026-05-06 22:35 38.45805 -78.19466 34843 ft 444 kts 191°
2026-05-06 22:36 38.39644 -78.18951 34859 ft 444 kts 191°
2026-05-06 22:36 38.33481 -78.18430 34870 ft 444 kts 191°
2026-05-06 22:37 38.27360 -78.17910 34852 ft 444 kts 191°
2026-05-06 22:37 38.21191 -78.17393 34849 ft 444 kts 191°
2026-05-06 22:38 38.14978 -78.16872 34859 ft 445 kts 191°
2026-05-06 22:38 38.08843 -78.16356 34868 ft 445 kts 191°
2026-05-06 22:39 38.02665 -78.15834 34848 ft 445 kts 191°
2026-05-06 22:39 37.96473 -78.15325 34855 ft 447 kts 191°
2026-05-06 22:40 37.90258 -78.14809 34861 ft 448 kts 190°
2026-05-06 22:40 37.84024 -78.14284 34632 ft 448 kts 190°
2026-05-06 22:41 37.77811 -78.13752 34264 ft 447 kts 190°
2026-05-06 22:41 37.74709 -78.13492 34084 ft 447 kts 190°
2026-05-06 22:41 37.71607 -78.13239 33899 ft 447 kts 190°
2026-05-06 22:42 37.68510 -78.12987 33885 ft 446 kts 190°
2026-05-06 22:42 37.62305 -78.12479 33893 ft 447 kts 190°
2026-05-06 22:43 37.56090 -78.11961 33899 ft 449 kts 189°
2026-05-06 22:43 37.49838 -78.11417 33900 ft 451 kts 189°
2026-05-06 22:44 37.43580 -78.10861 33908 ft 451 kts 189°
2026-05-06 22:44 37.37320 -78.10306 33910 ft 451 kts 189°
2026-05-06 22:45 37.31100 -78.09766 33884 ft 451 kts 189°
2026-05-06 22:45 37.24824 -78.09228 33903 ft 453 kts 189°
2026-05-06 22:46 37.18536 -78.08682 33906 ft 453 kts 189°
2026-05-06 22:46 37.12244 -78.08142 33915 ft 454 kts 189°
2026-05-06 22:47 37.05944 -78.07599 33894 ft 454 kts 189°
2026-05-06 22:47 36.99629 -78.07055 33903 ft 455 kts 189°
2026-05-06 22:48 36.93298 -78.06505 33912 ft 456 kts 189°
2026-05-06 22:48 36.86967 -78.05955 33940 ft 456 kts 189°
2026-05-06 22:49 36.80632 -78.05414 33965 ft 457 kts 189°
2026-05-06 22:49 36.74291 -78.04877 33981 ft 457 kts 189°
2026-05-06 22:50 36.67944 -78.04345 33991 ft 457 kts 189°
2026-05-06 22:50 36.61590 -78.03802 33958 ft 458 kts 189°
2026-05-06 22:51 36.55229 -78.03259 33920 ft 458 kts 189°
2026-05-06 22:51 36.48866 -78.02707 33934 ft 458 kts 189°
2026-05-06 22:52 36.42510 -78.02210 33934 ft 452 kts 193°
2026-05-06 22:52 36.39430 -78.02459 33936 ft 436 kts 202°
2026-05-06 22:52 36.36514 -78.03230 33917 ft 422 kts 209°
2026-05-06 22:52 36.33796 -78.04450 33920 ft 410 kts 216°
2026-05-06 22:53 36.31270 -78.06018 33926 ft 405 kts 219°
2026-05-06 22:53 36.26264 -78.09248 33937 ft 406 kts 219°
2026-05-06 22:54 36.21266 -78.12432 33952 ft 407 kts 219°
2026-05-06 22:54 36.16223 -78.15633 33960 ft 407 kts 219°
2026-05-06 22:55 36.11178 -78.18853 33936 ft 409 kts 218°
2026-05-06 22:55 36.06107 -78.22092 33951 ft 411 kts 218°
2026-05-06 22:56 36.01007 -78.25334 33958 ft 413 kts 218°
2026-05-06 22:56 35.95896 -78.28584 33960 ft 413 kts 218°
2026-05-06 22:57 35.90775 -78.31832 33943 ft 414 kts 218°
2026-05-06 22:57 35.85641 -78.35081 33925 ft 416 kts 218°
2026-05-06 22:58 35.80484 -78.38343 33925 ft 417 kts 218°
2026-05-06 22:58 35.75317 -78.41606 33928 ft 418 kts 218°
2026-05-06 22:59 35.70143 -78.44876 33932 ft 418 kts 218°
2026-05-06 22:59 35.64962 -78.48152 33902 ft 419 kts 218°
2026-05-06 23:00 35.60634 -78.50873 33896 ft 421 kts 217°
2026-05-06 23:00 35.55415 -78.54149 33921 ft 421 kts 218°
2026-05-06 23:01 35.50189 -78.57425 33930 ft 422 kts 218°
2026-05-06 23:01 35.44963 -78.60702 33964 ft 422 kts 217°
2026-05-06 23:02 35.39731 -78.63971 33967 ft 422 kts 217°
2026-05-06 23:02 35.34502 -78.67239 33968 ft 422 kts 217°
2026-05-06 23:03 35.29276 -78.70506 33995 ft 421 kts 217°
2026-05-06 23:03 35.24064 -78.73753 33996 ft 420 kts 217°
2026-05-06 23:04 35.18870 -78.76988 33955 ft 419 kts 217°
2026-05-06 23:04 35.13677 -78.80217 33939 ft 419 kts 217°
2026-05-06 23:05 35.08483 -78.83440 33937 ft 419 kts 217°
2026-05-06 23:05 35.03295 -78.86662 33965 ft 418 kts 217°
2026-05-06 23:06 34.98105 -78.89879 33937 ft 419 kts 217°
2026-05-06 23:06 34.92908 -78.93096 33945 ft 419 kts 217°
2026-05-06 23:07 34.87699 -78.96308 33947 ft 420 kts 217°
2026-05-06 23:07 34.82482 -78.99519 33952 ft 420 kts 217°
2026-05-06 23:08 34.77263 -79.02730 33964 ft 420 kts 217°
2026-05-06 23:08 34.72039 -79.05944 33958 ft 422 kts 217°
2026-05-06 23:09 34.66799 -79.09161 33986 ft 422 kts 217°
2026-05-06 23:09 34.61557 -79.12368 33991 ft 421 kts 217°
2026-05-06 23:10 34.56332 -79.15563 33993 ft 420 kts 217°
2026-05-06 23:10 34.51144 -79.18731 33991 ft 420 kts 217°
2026-05-06 23:11 34.45891 -79.21942 33967 ft 420 kts 216°
2026-05-06 23:11 34.41058 -79.25677 33982 ft 404 kts 230°
2026-05-06 23:12 34.36864 -79.30183 33988 ft 403 kts 230°
2026-05-06 23:12 34.32666 -79.34685 33993 ft 403 kts 230°
2026-05-06 23:13 34.28492 -79.39148 33995 ft 403 kts 230°
2026-05-06 23:13 34.24288 -79.43633 33972 ft 403 kts 229°
2026-05-06 23:14 34.20080 -79.48116 33984 ft 403 kts 229°
2026-05-06 23:14 34.15873 -79.52590 33991 ft 403 kts 229°
2026-05-06 23:15 34.11665 -79.57056 33988 ft 402 kts 229°
2026-05-06 23:15 34.07461 -79.61517 33988 ft 402 kts 229°
2026-05-06 23:16 34.03256 -79.65973 33969 ft 402 kts 229°
2026-05-06 23:16 33.99049 -79.70424 33972 ft 402 kts 229°
2026-05-06 23:17 33.94837 -79.74869 33973 ft 402 kts 229°
2026-05-06 23:17 33.90624 -79.79312 33983 ft 403 kts 229°
2026-05-06 23:18 33.86413 -79.83753 33983 ft 402 kts 229°
2026-05-06 23:18 33.82200 -79.88185 33983 ft 402 kts 229°
2026-05-06 23:19 33.77992 -79.92609 33965 ft 402 kts 230°
2026-05-06 23:19 33.73782 -79.97028 33990 ft 402 kts 230°
2026-05-06 23:20 33.69575 -80.01433 33994 ft 401 kts 230°
2026-05-06 23:20 33.65346 -80.05813 33987 ft 404 kts 226°
2026-05-06 23:20 33.62956 -80.07672 33987 ft 416 kts 217°
2026-05-06 23:21 33.60365 -80.09246 33989 ft 418 kts 216°
2026-05-06 23:21 33.55174 -80.12380 33974 ft 418 kts 217°
2026-05-06 23:22 33.50008 -80.15494 33969 ft 419 kts 217°
2026-05-06 23:22 33.44806 -80.18638 33964 ft 419 kts 218°
2026-05-06 23:23 33.39599 -80.21779 33977 ft 419 kts 217°
2026-05-06 23:23 33.34394 -80.24915 33997 ft 419 kts 218°
2026-05-06 23:24 33.29188 -80.28046 33986 ft 419 kts 218°
2026-05-06 23:24 33.23981 -80.31180 33988 ft 419 kts 218°
2026-05-06 23:25 33.18765 -80.34317 33989 ft 420 kts 218°
2026-05-06 23:25 33.13537 -80.37449 33994 ft 420 kts 218°
2026-05-06 23:26 33.08304 -80.40573 33997 ft 421 kts 218°
2026-05-06 23:26 33.03069 -80.43697 33996 ft 421 kts 218°
2026-05-06 23:27 32.97832 -80.46821 34009 ft 421 kts 218°
2026-05-06 23:27 32.92597 -80.49946 34011 ft 421 kts 218°
2026-05-06 23:28 32.87361 -80.53068 34014 ft 421 kts 218°
2026-05-06 23:28 32.82129 -80.56181 34013 ft 420 kts 217°
2026-05-06 23:29 32.76900 -80.59281 34001 ft 420 kts 217°
2026-05-06 23:29 32.71666 -80.62380 34001 ft 420 kts 217°
2026-05-06 23:30 32.66403 -80.65445 34008 ft 422 kts 216°
2026-05-06 23:30 32.61087 -80.68437 34011 ft 423 kts 216°
2026-05-06 23:31 32.55758 -80.71418 34017 ft 423 kts 216°
2026-05-06 23:31 32.50440 -80.74418 34000 ft 423 kts 216°
2026-05-06 23:32 32.45122 -80.77427 34007 ft 424 kts 216°
2026-05-06 23:32 32.39800 -80.80438 34013 ft 424 kts 216°
2026-05-06 23:33 32.34472 -80.83443 34023 ft 424 kts 216°
2026-05-06 23:33 32.29138 -80.86443 34038 ft 424 kts 216°
2026-05-06 23:34 32.23838 -80.89422 34011 ft 425 kts 216°
2026-05-06 23:34 32.18496 -80.92421 34002 ft 425 kts 215°
2026-05-06 23:35 32.13146 -80.95416 33977 ft 426 kts 215°
2026-05-06 23:35 32.07793 -80.98409 33985 ft 426 kts 215°
2026-05-06 23:36 32.02442 -81.01404 33981 ft 426 kts 215°
2026-05-06 23:36 31.97072 -81.04392 33974 ft 428 kts 215°
2026-05-06 23:37 31.91663 -81.07364 33978 ft 430 kts 215°
2026-05-06 23:37 31.86231 -81.10337 33988 ft 431 kts 215°
2026-05-06 23:38 31.80792 -81.13311 33998 ft 431 kts 214°
2026-05-06 23:38 31.75352 -81.16286 33989 ft 431 kts 214°
2026-05-06 23:39 31.69909 -81.19268 33998 ft 432 kts 214°
2026-05-06 23:39 31.64455 -81.22250 34016 ft 433 kts 214°
2026-05-06 23:40 31.58989 -81.25224 34030 ft 433 kts 214°
2026-05-06 23:40 31.53519 -81.28209 34027 ft 434 kts 214°
2026-05-06 23:41 31.48083 -81.31169 34009 ft 434 kts 213°
2026-05-06 23:41 31.42605 -81.34135 34030 ft 434 kts 213°
2026-05-06 23:42 31.37115 -81.37108 34040 ft 435 kts 213°
2026-05-06 23:42 31.31625 -81.40085 34053 ft 435 kts 213°
2026-05-06 23:43 31.25972 -81.42731 34053 ft 447 kts 201°
2026-05-06 23:43 31.22865 -81.43305 34042 ft 458 kts 191°
2026-05-06 23:43 31.19649 -81.43267 34026 ft 465 kts 184°
2026-05-06 23:44 31.13182 -81.42890 34028 ft 466 kts 185°
2026-05-06 23:44 31.06707 -81.42557 34031 ft 466 kts 185°
2026-05-06 23:45 31.00235 -81.42228 34032 ft 466 kts 185°
2026-05-06 23:45 30.93757 -81.41885 34027 ft 466 kts 185°
2026-05-06 23:46 30.87285 -81.41533 34038 ft 465 kts 185°
2026-05-06 23:46 30.80816 -81.41184 34048 ft 465 kts 185°
2026-05-06 23:47 30.75447 -81.40897 34053 ft 465 kts 185°
2026-05-06 23:47 30.68989 -81.40553 34048 ft 464 kts 185°
2026-05-06 23:48 30.62534 -81.40221 34033 ft 465 kts 185°
2026-05-06 23:48 30.56071 -81.39877 34037 ft 465 kts 185°
2026-05-06 23:49 30.49595 -81.39525 34025 ft 466 kts 185°
2026-05-06 23:49 30.43114 -81.39175 34031 ft 466 kts 185°
2026-05-06 23:50 30.36630 -81.38794 34037 ft 467 kts 185°
2026-05-06 23:50 30.26896 -81.38196 34038 ft 467 kts 185°
2026-05-06 23:51 30.20450 -81.37803 34046 ft 467 kts 185°
2026-05-06 23:51 30.13962 -81.37424 34053 ft 467 kts 185°
2026-05-06 23:52 30.07471 -81.37036 34046 ft 467 kts 185°
2026-05-06 23:52 30.00985 -81.36648 34063 ft 466 kts 185°
2026-05-06 23:53 29.94503 -81.36258 34071 ft 466 kts 185°
2026-05-06 23:53 29.88029 -81.35871 34072 ft 466 kts 185°
2026-05-06 23:54 29.81552 -81.35492 34063 ft 466 kts 185°
2026-05-06 23:54 29.75088 -81.35110 34075 ft 465 kts 185°
2026-05-06 23:55 29.68622 -81.34725 34080 ft 465 kts 185°
2026-05-06 23:55 29.62166 -81.34340 34084 ft 465 kts 185°
2026-05-06 23:56 29.55708 -81.33959 34084 ft 465 kts 185°
2026-05-06 23:56 29.49254 -81.33583 34051 ft 464 kts 185°
2026-05-06 23:57 29.42797 -81.33192 34053 ft 465 kts 185°
2026-05-06 23:57 29.36337 -81.32812 34057 ft 465 kts 185°
2026-05-06 23:58 29.29879 -81.32442 34060 ft 465 kts 185°
2026-05-06 23:58 29.23461 -81.32034 34046 ft 466 kts 184°
2026-05-06 23:59 29.16985 -81.31499 34053 ft 467 kts 183°
2026-05-06 23:59 29.10507 -81.30946 34057 ft 467 kts 183°
2026-05-07 00:00 29.04022 -81.30422 34060 ft 467 kts 183°
2026-05-07 00:00 28.97537 -81.29907 34064 ft 467 kts 183°
2026-05-07 00:01 28.91054 -81.29035 34046 ft 477 kts 172°
2026-05-07 00:01 28.84734 -81.26494 34046 ft 484 kts 165°
2026-05-07 00:02 28.78451 -81.23737 34047 ft 484 kts 165°
2026-05-07 00:02 28.72141 -81.20988 34214 ft 487 kts 165°
2026-05-07 00:03 28.68975 -81.19618 34436 ft 487 kts 165°
2026-05-07 00:03 28.65807 -81.18251 34622 ft 487 kts 165°
2026-05-07 00:03 28.62637 -81.16882 34862 ft 487 kts 164°
2026-05-07 00:03 28.59471 -81.15512 35042 ft 487 kts 164°
2026-05-07 00:04 28.53147 -81.12773 35063 ft 486 kts 164°
2026-05-07 00:04 28.46825 -81.10037 35065 ft 486 kts 164°
2026-05-07 00:05 28.40509 -81.07307 35065 ft 486 kts 165°
2026-05-07 00:05 28.34100 -81.05092 35066 ft 476 kts 176°
2026-05-07 00:06 28.27561 -81.03832 35081 ft 477 kts 176°
2026-05-07 00:06 28.21011 -81.02564 35094 ft 477 kts 176°
2026-05-07 00:07 28.14510 -81.01290 35093 ft 477 kts 176°
2026-05-07 00:07 28.07968 -81.00012 35086 ft 477 kts 176°
2026-05-07 00:08 28.01426 -80.98748 35063 ft 477 kts 176°
2026-05-07 00:08 27.94884 -80.97481 35064 ft 477 kts 175°
2026-05-07 00:09 27.88338 -80.96207 35065 ft 477 kts 175°
2026-05-07 00:09 27.81822 -80.94674 35066 ft 483 kts 166°
2026-05-07 00:10 27.75530 -80.91889 35059 ft 486 kts 162°
2026-05-07 00:10 27.69254 -80.89040 35072 ft 487 kts 162°
2026-05-07 00:11 27.62969 -80.86189 35076 ft 487 kts 162°
2026-05-07 00:11 27.56676 -80.83344 35081 ft 487 kts 162°
2026-05-07 00:12 27.50379 -80.80515 35084 ft 487 kts 162°
2026-05-07 00:12 27.44085 -80.77684 35082 ft 487 kts 162°
2026-05-07 00:13 27.37796 -80.74858 35073 ft 487 kts 162°
2026-05-07 00:13 27.31499 -80.72036 35072 ft 487 kts 162°
2026-05-07 00:14 27.25207 -80.69215 35072 ft 487 kts 162°
2026-05-07 00:14 27.18914 -80.66386 35075 ft 487 kts 162°
2026-05-07 00:15 27.12626 -80.63566 35074 ft 487 kts 162°
2026-05-07 00:15 27.06334 -80.60750 35097 ft 487 kts 162°
2026-05-07 00:16 27.00040 -80.57939 35093 ft 487 kts 162°
2026-05-07 00:16 26.93746 -80.55138 35089 ft 487 kts 162°
2026-05-07 00:17 26.87497 -80.52355 35094 ft 487 kts 162°
2026-05-07 00:17 26.81205 -80.49551 35086 ft 487 kts 162°
2026-05-07 00:18 26.74906 -80.46756 35090 ft 487 kts 162°
2026-05-07 00:18 26.68610 -80.43956 35097 ft 487 kts 162°
2026-05-07 00:19 26.62311 -80.41160 35099 ft 487 kts 162°
2026-05-07 00:19 26.56014 -80.38371 35102 ft 487 kts 162°
2026-05-07 00:20 26.49716 -80.35590 35092 ft 487 kts 162°
2026-05-07 00:20 26.43416 -80.32810 35099 ft 487 kts 162°
2026-05-07 00:21 26.37120 -80.30037 35105 ft 487 kts 162°
2026-05-07 00:21 26.30823 -80.27248 35100 ft 487 kts 162°
2026-05-07 00:22 26.24526 -80.24482 35098 ft 487 kts 162°
2026-05-07 00:22 26.18347 -80.21380 35088 ft 491 kts 150°
2026-05-07 00:23 26.13162 -80.16432 35083 ft 495 kts 130°
2026-05-07 00:23 26.09336 -80.10075 35084 ft 495 kts 121°
2026-05-07 00:24 26.05703 -80.03562 35084 ft 495 kts 122°
2026-05-07 00:24 26.02063 -79.97058 35084 ft 496 kts 122°
2026-05-07 00:25 25.98412 -79.90550 35081 ft 496 kts 122°
2026-05-07 00:25 25.94601 -79.84175 35075 ft 495 kts 131°
2026-05-07 00:26 25.89460 -79.79180 35074 ft 490 kts 151°
2026-05-07 00:26 25.83320 -79.76172 35075 ft 485 kts 164°
2026-05-07 00:27 25.76935 -79.73734 35073 ft 486 kts 164°
2026-05-07 00:27 25.70537 -79.71281 35080 ft 486 kts 164°
2026-05-07 00:28 25.64145 -79.68822 35083 ft 486 kts 164°
2026-05-07 00:28 25.57745 -79.66375 35079 ft 486 kts 164°
2026-05-07 00:29 25.51343 -79.63940 35080 ft 487 kts 164°
2026-05-07 00:30 25.38536 -79.59051 35090 ft 487 kts 164°
2026-05-07 00:30 25.32130 -79.56612 35091 ft 487 kts 164°
2026-05-07 00:31 25.25726 -79.54179 35081 ft 487 kts 163°
2026-05-07 00:31 25.19317 -79.51756 35084 ft 487 kts 163°
2026-05-07 00:32 25.12912 -79.49333 35085 ft 487 kts 164°
2026-05-07 00:32 25.06506 -79.46913 35085 ft 486 kts 163°
2026-05-07 00:33 25.00103 -79.44488 35083 ft 487 kts 163°
2026-05-07 00:33 24.93697 -79.42070 35085 ft 487 kts 163°
2026-05-07 00:34 24.87289 -79.39649 35085 ft 487 kts 163°
2026-05-07 00:34 24.80876 -79.37238 35086 ft 487 kts 163°
2026-05-07 00:35 24.74509 -79.34839 35084 ft 487 kts 163°
2026-05-07 00:35 24.68100 -79.32419 35083 ft 487 kts 163°
2026-05-07 00:36 24.61689 -79.30008 35069 ft 487 kts 163°
2026-05-07 00:36 24.55279 -79.27605 35077 ft 487 kts 163°
2026-05-07 00:37 24.48870 -79.25208 35080 ft 487 kts 163°
2026-05-07 00:37 24.43500 -79.23203 35081 ft 487 kts 163°
2026-05-07 00:38 24.37091 -79.20802 35083 ft 486 kts 163°
2026-05-07 00:38 24.30682 -79.18413 35082 ft 486 kts 163°
2026-05-07 00:39 24.24276 -79.16026 35082 ft 486 kts 163°
2026-05-07 00:39 24.17910 -79.13654 35082 ft 486 kts 163°
2026-05-07 00:40 24.11504 -79.11267 35079 ft 486 kts 163°
2026-05-07 00:40 24.05097 -79.08891 35080 ft 486 kts 163°
2026-05-07 00:41 23.98641 -79.06721 35065 ft 483 kts 172°
2026-05-07 00:41 23.92037 -79.05408 35076 ft 483 kts 172°
2026-05-07 00:42 23.85427 -79.04093 35072 ft 483 kts 172°
2026-05-07 00:42 23.78814 -79.02781 35073 ft 483 kts 172°
2026-05-07 00:43 23.72196 -79.01481 35073 ft 483 kts 172°
2026-05-07 00:43 23.65578 -79.00180 35065 ft 483 kts 172°
2026-05-07 00:44 23.58965 -78.98863 35070 ft 483 kts 172°
2026-05-07 00:44 23.52349 -78.97540 35074 ft 483 kts 172°
2026-05-07 00:45 23.45733 -78.96238 35077 ft 483 kts 172°
2026-05-07 00:45 23.39114 -78.94944 35075 ft 483 kts 172°
2026-05-07 00:46 23.32495 -78.93644 35067 ft 483 kts 172°
2026-05-07 00:46 23.25880 -78.92337 35069 ft 483 kts 172°
2026-05-07 00:47 23.19266 -78.91034 35076 ft 483 kts 172°
2026-05-07 00:47 23.12644 -78.89739 35080 ft 483 kts 172°
2026-05-07 00:48 23.06024 -78.88446 35080 ft 483 kts 172°
2026-05-07 00:48 22.99408 -78.87149 35074 ft 483 kts 172°
2026-05-07 00:49 22.92800 -78.85852 35074 ft 483 kts 172°
2026-05-07 00:49 22.86187 -78.84558 35075 ft 483 kts 172°
2026-05-07 00:50 22.79572 -78.83267 35080 ft 483 kts 172°
2026-05-07 00:50 22.72954 -78.81980 35082 ft 483 kts 172°
2026-05-07 00:51 22.66337 -78.80691 35077 ft 483 kts 172°
2026-05-07 00:51 22.59766 -78.79412 35077 ft 483 kts 172°
2026-05-07 00:52 22.53151 -78.78122 35074 ft 483 kts 171°
2026-05-07 00:52 22.46534 -78.76829 35074 ft 483 kts 172°
2026-05-07 00:53 22.39919 -78.75551 35074 ft 483 kts 172°
2026-05-07 00:53 22.33307 -78.74271 35069 ft 483 kts 171°
2026-05-07 00:54 22.26695 -78.72980 35072 ft 483 kts 171°
2026-05-07 00:54 22.20081 -78.71698 35074 ft 483 kts 171°
2026-05-07 00:55 22.13460 -78.70426 35076 ft 483 kts 171°
2026-05-07 00:55 22.06834 -78.69150 35076 ft 483 kts 171°
2026-05-07 00:56 22.00220 -78.67872 35078 ft 483 kts 171°
2026-05-07 00:56 21.93608 -78.66597 35068 ft 483 kts 171°
2026-05-07 00:57 21.87037 -78.65331 35073 ft 483 kts 171°
2026-05-07 00:57 21.80417 -78.64057 35075 ft 483 kts 171°
2026-05-07 00:58 21.73800 -78.62786 35075 ft 483 kts 171°
2026-05-07 00:58 21.67186 -78.61514 35075 ft 483 kts 171°
2026-05-07 00:59 21.57276 -78.59616 35077 ft 482 kts 171°
2026-05-07 01:00 21.50677 -78.58348 35067 ft 482 kts 171°
2026-05-07 01:00 21.44081 -78.57080 35070 ft 481 kts 171°
2026-05-07 01:01 21.37489 -78.55820 35064 ft 481 kts 171°
2026-05-07 01:01 21.30896 -78.54564 35066 ft 481 kts 171°
2026-05-07 01:02 21.24309 -78.53303 35068 ft 481 kts 171°
2026-05-07 01:02 21.17724 -78.52039 35067 ft 481 kts 171°
2026-05-07 01:03 21.11138 -78.50784 35059 ft 481 kts 171°
2026-05-07 01:03 21.04551 -78.49535 35061 ft 481 kts 171°
2026-05-07 01:04 20.98005 -78.48292 35066 ft 481 kts 171°
2026-05-07 01:04 20.91417 -78.47037 35069 ft 481 kts 171°
2026-05-07 01:05 20.84829 -78.45792 35064 ft 481 kts 171°
2026-05-07 01:05 20.78241 -78.44542 35060 ft 481 kts 171°
2026-05-07 01:06 20.71656 -78.43288 35059 ft 481 kts 170°
2026-05-07 01:06 20.65063 -78.42039 35049 ft 481 kts 170°
2026-05-07 01:07 20.58470 -78.40792 35051 ft 481 kts 170°
2026-05-07 01:07 20.51871 -78.39543 35056 ft 482 kts 171°
2026-05-07 01:08 20.45271 -78.38302 35050 ft 482 kts 170°
2026-05-07 01:08 20.38671 -78.37053 35049 ft 482 kts 170°
2026-05-07 01:09 20.32075 -78.35806 35063 ft 481 kts 170°
2026-05-07 01:09 20.25476 -78.34564 35069 ft 482 kts 170°
2026-05-07 01:09 20.22158 -78.33939 35207 ft 485 kts 170°
2026-05-07 01:10 20.18832 -78.33314 35429 ft 486 kts 171°
2026-05-07 01:10 20.15503 -78.32694 35681 ft 485 kts 171°
2026-05-07 01:10 20.12179 -78.32075 35946 ft 485 kts 171°
2026-05-07 01:10 20.08905 -78.31461 36207 ft 484 kts 171°
2026-05-07 01:11 20.05593 -78.30839 36469 ft 483 kts 170°
2026-05-07 01:11 20.02289 -78.30218 36730 ft 482 kts 170°
2026-05-07 01:11 19.98990 -78.29599 36969 ft 481 kts 171°
2026-05-07 01:12 19.92413 -78.28265 37053 ft 480 kts 168°
2026-05-07 01:12 19.85893 -78.26713 37054 ft 480 kts 167°
2026-05-07 01:13 19.79380 -78.25135 37054 ft 480 kts 168°
2026-05-07 01:13 19.72852 -78.23620 37050 ft 480 kts 168°
2026-05-07 01:14 19.66315 -78.22134 37050 ft 481 kts 168°
2026-05-07 01:14 19.59771 -78.20645 37052 ft 481 kts 168°
2026-05-07 01:15 19.53230 -78.19138 37049 ft 481 kts 168°
2026-05-07 01:15 19.46687 -78.17628 37054 ft 481 kts 168°
2026-05-07 01:16 19.40140 -78.16128 37050 ft 481 kts 168°
2026-05-07 01:16 19.33591 -78.14635 37056 ft 481 kts 168°
2026-05-07 01:17 19.27047 -78.13141 37055 ft 481 kts 168°
2026-05-07 01:17 19.20541 -78.11660 37052 ft 481 kts 168°
2026-05-07 01:18 19.13996 -78.10172 37055 ft 481 kts 168°
2026-05-07 01:18 19.07450 -78.08662 37053 ft 481 kts 168°
2026-05-07 01:19 19.00912 -78.07159 37056 ft 481 kts 168°
2026-05-07 01:19 18.94378 -78.05670 37049 ft 480 kts 168°
2026-05-07 01:20 18.87848 -78.04190 37050 ft 480 kts 168°
2026-05-07 01:20 18.81318 -78.02711 37052 ft 480 kts 168°
2026-05-07 01:21 18.74791 -78.01225 37053 ft 480 kts 168°
2026-05-07 01:21 18.68270 -77.99739 37042 ft 479 kts 167°
2026-05-07 01:22 18.61758 -77.98264 37041 ft 478 kts 167°
2026-05-07 01:22 18.55253 -77.96793 37039 ft 478 kts 167°
2026-05-07 01:23 18.48752 -77.95316 37042 ft 478 kts 167°
2026-05-07 01:23 18.42244 -77.93845 37041 ft 479 kts 167°
2026-05-07 01:24 18.35730 -77.92375 37042 ft 479 kts 167°
2026-05-07 01:24 18.29216 -77.90903 37040 ft 479 kts 167°
2026-05-07 01:25 18.22707 -77.89430 37057 ft 478 kts 167°
2026-05-07 01:25 18.16196 -77.87961 37043 ft 478 kts 167°
2026-05-07 01:26 18.10788 -77.86745 37052 ft 478 kts 167°
2026-05-07 01:26 18.04277 -77.85280 37046 ft 479 kts 167°
2026-05-07 01:27 17.97767 -77.83815 37036 ft 478 kts 167°
2026-05-07 01:27 17.91262 -77.82353 37053 ft 478 kts 167°
2026-05-07 01:28 17.84761 -77.80891 37056 ft 477 kts 167°
2026-05-07 01:28 17.78263 -77.79442 37048 ft 477 kts 167°
2026-05-07 01:29 17.71768 -77.77990 37049 ft 477 kts 167°
2026-05-07 01:29 17.65272 -77.76531 37058 ft 477 kts 167°
2026-05-07 01:30 17.58777 -77.75074 37038 ft 477 kts 167°
2026-05-07 01:30 17.52281 -77.73625 37047 ft 477 kts 167°
2026-05-07 01:31 17.45792 -77.72174 37044 ft 477 kts 167°
2026-05-07 01:31 17.39305 -77.70721 37043 ft 477 kts 167°
2026-05-07 01:32 17.32818 -77.69268 37037 ft 476 kts 167°
2026-05-07 01:32 17.26339 -77.67828 37037 ft 476 kts 167°
2026-05-07 01:33 17.19865 -77.66383 37040 ft 476 kts 167°
2026-05-07 01:33 17.13396 -77.64933 37042 ft 475 kts 167°
2026-05-07 01:34 17.06926 -77.63492 37037 ft 475 kts 167°
2026-05-07 01:34 17.00458 -77.62057 37036 ft 475 kts 167°
2026-05-07 01:35 16.93990 -77.60612 37038 ft 475 kts 167°
2026-05-07 01:35 16.87528 -77.59172 37047 ft 475 kts 167°
2026-05-07 01:36 16.81070 -77.57735 37033 ft 474 kts 167°
2026-05-07 01:36 16.74615 -77.56302 37035 ft 474 kts 167°
2026-05-07 01:37 16.68199 -77.54887 37023 ft 475 kts 167°
2026-05-07 01:37 16.61736 -77.53457 37035 ft 475 kts 167°
2026-05-07 01:38 16.55275 -77.52025 37041 ft 474 kts 166°
2026-05-07 01:38 16.48825 -77.50587 37041 ft 474 kts 167°
2026-05-07 01:39 16.42377 -77.49157 37036 ft 473 kts 167°
2026-05-07 01:39 16.35935 -77.47739 37031 ft 473 kts 167°
2026-05-07 01:40 16.29493 -77.46323 37025 ft 473 kts 166°
2026-05-07 01:40 16.23070 -77.44902 37034 ft 471 kts 166°
2026-05-07 01:41 16.16658 -77.43481 37035 ft 471 kts 167°
2026-05-07 01:41 16.10250 -77.42074 37027 ft 470 kts 166°
2026-05-07 01:42 16.03847 -77.40662 37025 ft 470 kts 167°
2026-05-07 01:42 15.97450 -77.39256 37017 ft 470 kts 167°
2026-05-07 01:43 15.91037 -77.37922 37029 ft 470 kts 167°
2026-05-07 01:43 15.84615 -77.36667 37033 ft 469 kts 168°
2026-05-07 01:44 15.78202 -77.35427 37028 ft 469 kts 167°
2026-05-07 01:44 15.71844 -77.34161 37025 ft 468 kts 168°
2026-05-07 01:45 15.65453 -77.32884 37004 ft 468 kts 167°
2026-05-07 01:45 15.59065 -77.31607 37024 ft 467 kts 167°
2026-05-07 01:46 15.52682 -77.30340 37024 ft 467 kts 167°
2026-05-07 01:46 15.46308 -77.29073 37024 ft 466 kts 167°
2026-05-07 01:47 15.39944 -77.27812 37021 ft 465 kts 167°
2026-05-07 01:47 15.33585 -77.26552 37012 ft 465 kts 167°
2026-05-07 01:48 15.27225 -77.25290 37017 ft 465 kts 167°
2026-05-07 01:48 15.20869 -77.24033 37023 ft 465 kts 167°
2026-05-07 01:49 15.14521 -77.22778 37030 ft 464 kts 167°
2026-05-07 01:49 15.08186 -77.21522 37017 ft 464 kts 167°
2026-05-07 01:50 15.01849 -77.20267 37013 ft 464 kts 166°
2026-05-07 01:50 14.95511 -77.19004 37007 ft 464 kts 167°
2026-05-07 01:51 14.89176 -77.17727 37009 ft 464 kts 167°
2026-05-07 01:51 14.82886 -77.16453 37010 ft 463 kts 167°
2026-05-07 01:52 14.76556 -77.15174 37008 ft 463 kts 167°
2026-05-07 01:52 14.70231 -77.13901 37008 ft 463 kts 167°
2026-05-07 01:53 14.63903 -77.12625 37006 ft 463 kts 167°
2026-05-07 01:53 14.57579 -77.11351 37006 ft 463 kts 166°
2026-05-07 01:54 14.51248 -77.10077 37000 ft 463 kts 167°
2026-05-07 01:54 14.44916 -77.08807 36992 ft 464 kts 167°
2026-05-07 01:55 14.38582 -77.07541 37000 ft 464 kts 167°
2026-05-07 01:55 14.32244 -77.06281 36997 ft 464 kts 167°
2026-05-07 01:56 14.25909 -77.05010 37002 ft 464 kts 167°
2026-05-07 01:56 14.19570 -77.03736 36997 ft 464 kts 167°
2026-05-07 01:57 14.13227 -77.02467 37002 ft 464 kts 167°
2026-05-07 01:57 14.06887 -77.01201 37002 ft 464 kts 167°
2026-05-07 01:58 14.00592 -76.99943 37000 ft 464 kts 167°
2026-05-07 01:58 13.94250 -76.98677 36999 ft 464 kts 167°
2026-05-07 01:59 13.87910 -76.97409 36995 ft 464 kts 167°
2026-05-07 01:59 13.81567 -76.96141 36996 ft 464 kts 167°
2026-05-07 02:00 13.75218 -76.94863 36986 ft 465 kts 167°
2026-05-07 02:00 13.68858 -76.93595 36990 ft 466 kts 167°
2026-05-07 02:01 13.62493 -76.92332 36986 ft 466 kts 167°
2026-05-07 02:01 13.56126 -76.91064 36986 ft 466 kts 167°
2026-05-07 02:02 13.49754 -76.89790 36991 ft 466 kts 168°
2026-05-07 02:02 13.43423 -76.88531 36978 ft 467 kts 167°
2026-05-07 02:03 13.37038 -76.87266 36991 ft 467 kts 167°
2026-05-07 02:03 13.30654 -76.85994 36974 ft 468 kts 168°
2026-05-07 02:04 13.24262 -76.84728 36988 ft 468 kts 168°
2026-05-07 02:04 13.17873 -76.83465 36974 ft 468 kts 167°
2026-05-07 02:05 13.11478 -76.82191 36985 ft 468 kts 168°
2026-05-07 02:05 13.05092 -76.80920 36984 ft 467 kts 168°
2026-05-07 02:06 12.98709 -76.79656 36985 ft 467 kts 168°
2026-05-07 02:06 12.92332 -76.78388 36980 ft 467 kts 168°
2026-05-07 02:07 12.85957 -76.77125 36974 ft 466 kts 168°
2026-05-07 02:07 12.76397 -76.75235 36978 ft 466 kts 169°
2026-05-07 02:08 12.70032 -76.73962 36974 ft 466 kts 166°
2026-05-07 02:08 12.64003 -76.71593 36977 ft 464 kts 155°
2026-05-07 02:09 12.58121 -76.68851 36967 ft 465 kts 155°
2026-05-07 02:09 12.52272 -76.66128 36975 ft 465 kts 155°
2026-05-07 02:10 12.46386 -76.63388 36969 ft 464 kts 155°
2026-05-07 02:10 12.40502 -76.60650 36948 ft 465 kts 155°
2026-05-07 02:11 12.34598 -76.57910 36952 ft 466 kts 155°
2026-05-07 02:11 12.28695 -76.55157 36955 ft 466 kts 155°
2026-05-07 02:12 12.22786 -76.52408 36946 ft 467 kts 156°
2026-05-07 02:12 12.16858 -76.49668 36960 ft 468 kts 156°
2026-05-07 02:13 12.10928 -76.46936 36957 ft 467 kts 156°
2026-05-07 02:13 12.05006 -76.44194 36949 ft 468 kts 157°
2026-05-07 02:14 11.99078 -76.41432 36956 ft 469 kts 156°
2026-05-07 02:14 11.93138 -76.38686 36954 ft 469 kts 157°
2026-05-07 02:15 11.90166 -76.37309 36725 ft 468 kts 156°
2026-05-07 02:15 11.87192 -76.35931 36473 ft 471 kts 156°
2026-05-07 02:15 11.84208 -76.34548 35993 ft 472 kts 156°
2026-05-07 02:15 11.81200 -76.33158 35157 ft 477 kts 155°
2026-05-07 02:16 11.78162 -76.31755 34300 ft 482 kts 155°
2026-05-07 02:16 11.76128 -76.30817 33671 ft 486 kts 154°
2026-05-07 02:16 11.73032 -76.29386 32853 ft 488 kts 153°
2026-05-07 02:16 11.69960 -76.27970 32335 ft 483 kts 153°
2026-05-07 02:17 11.66906 -76.26564 31719 ft 481 kts 154°
2026-05-07 02:17 11.63863 -76.25161 31113 ft 478 kts 153°
2026-05-07 02:17 11.60842 -76.23761 30576 ft 475 kts 153°
2026-05-07 02:17 11.57848 -76.22374 29960 ft 473 kts 153°
2026-05-07 02:18 11.54877 -76.20999 29505 ft 465 kts 153°
2026-05-07 02:18 11.51941 -76.19646 28902 ft 461 kts 153°
2026-05-07 02:18 11.49028 -76.18304 28231 ft 459 kts 153°
2026-05-07 02:18 11.46124 -76.16965 27678 ft 455 kts 153°
2026-05-07 02:19 11.43248 -76.15639 27033 ft 453 kts 152°
2026-05-07 02:19 11.40394 -76.14326 26517 ft 448 kts 152°
2026-05-07 02:19 11.37564 -76.13021 25974 ft 445 kts 152°
2026-05-07 02:19 11.34760 -76.11726 25469 ft 441 kts 152°
2026-05-07 02:20 11.31980 -76.10441 24968 ft 437 kts 152°
2026-05-07 02:20 11.29222 -76.09167 24471 ft 433 kts 152°
2026-05-07 02:20 11.26488 -76.07906 23981 ft 429 kts 152°
2026-05-07 02:20 11.23778 -76.06657 23482 ft 427 kts 152°
2026-05-07 02:21 11.21084 -76.05414 22925 ft 423 kts 152°
2026-05-07 02:21 11.18422 -76.04187 22431 ft 417 kts 152°
2026-05-07 02:21 11.15793 -76.02978 21946 ft 412 kts 152°
2026-05-07 02:21 11.13229 -76.01801 21456 ft 408 kts 152°
2026-05-07 02:22 11.10656 -76.00621 20961 ft 404 kts 152°
2026-05-07 02:22 11.08108 -75.99454 20470 ft 400 kts 152°
2026-05-07 02:22 11.05582 -75.98295 19980 ft 397 kts 152°
2026-05-07 02:22 11.03076 -75.97143 19489 ft 394 kts 152°
2026-05-07 02:23 11.00590 -75.95998 19008 ft 391 kts 152°
2026-05-07 02:23 10.98117 -75.94861 18524 ft 389 kts 153°
2026-05-07 02:23 10.95663 -75.93731 18022 ft 386 kts 153°
2026-05-07 02:23 10.93224 -75.92610 17518 ft 382 kts 153°
2026-05-07 02:24 10.90815 -75.91504 17070 ft 378 kts 153°
2026-05-07 02:24 10.88447 -75.90416 16718 ft 371 kts 153°
2026-05-07 02:24 10.86109 -75.89340 16271 ft 367 kts 153°
2026-05-07 02:24 10.83795 -75.88275 15821 ft 363 kts 153°
2026-05-07 02:25 10.81498 -75.87221 15395 ft 360 kts 153°
2026-05-07 02:25 10.79223 -75.86180 14965 ft 357 kts 153°
2026-05-07 02:25 10.76966 -75.85146 14528 ft 354 kts 153°
2026-05-07 02:25 10.74729 -75.84120 14096 ft 351 kts 153°
2026-05-07 02:26 10.72513 -75.83102 13663 ft 348 kts 153°
2026-05-07 02:26 10.70314 -75.82092 13195 ft 345 kts 153°
2026-05-07 02:26 10.68139 -75.81094 12765 ft 341 kts 153°
2026-05-07 02:26 10.65987 -75.80107 12338 ft 337 kts 153°
2026-05-07 02:27 10.63860 -75.79132 11910 ft 334 kts 153°
2026-05-07 02:27 10.61749 -75.78164 11481 ft 331 kts 154°
2026-05-07 02:27 10.59657 -75.77207 11057 ft 329 kts 154°
2026-05-07 02:27 10.57581 -75.76257 10636 ft 326 kts 154°
2026-05-07 02:28 10.55520 -75.75311 10284 ft 322 kts 154°
2026-05-07 02:28 10.53520 -75.74395 10145 ft 309 kts 154°
2026-05-07 02:28 10.51599 -75.73515 10028 ft 297 kts 154°
2026-05-07 02:28 10.49736 -75.72664 9755 ft 292 kts 154°
2026-05-07 02:29 10.47886 -75.71818 9361 ft 290 kts 154°
2026-05-07 02:29 10.46047 -75.70978 8958 ft 289 kts 154°
2026-05-07 02:29 10.44225 -75.70143 8564 ft 287 kts 154°
2026-05-07 02:29 10.42410 -75.69312 8179 ft 285 kts 154°
2026-05-07 02:30 10.40608 -75.68486 7811 ft 283 kts 154°
2026-05-07 02:30 10.38821 -75.67666 7447 ft 280 kts 154°
2026-05-07 02:30 10.37074 -75.66867 7099 ft 278 kts 154°
2026-05-07 02:30 10.35318 -75.66063 6746 ft 276 kts 154°
2026-05-07 02:31 10.33573 -75.65267 6396 ft 274 kts 154°
2026-05-07 02:31 10.31853 -75.64481 6032 ft 267 kts 154°
2026-05-07 02:31 10.30191 -75.63721 5692 ft 257 kts 154°
2026-05-07 02:31 10.28615 -75.62970 5373 ft 242 kts 147°
2026-05-07 02:32 10.27413 -75.61871 5074 ft 228 kts 125°
2026-05-07 02:32 10.26755 -75.60458 4772 ft 218 kts 104°
2026-05-07 02:32 10.26611 -75.58959 4470 ft 210 kts 92°
2026-05-07 02:32 10.26560 -75.57498 4197 ft 203 kts 93°
2026-05-07 02:33 10.26505 -75.56100 3908 ft 193 kts 93°
2026-05-07 02:33 10.26451 -75.54794 3659 ft 179 kts 92°
2026-05-07 02:33 10.26460 -75.53569 3407 ft 170 kts 79°
2026-05-07 02:33 10.26994 -75.52531 3065 ft 169 kts 45°
2026-05-07 02:34 10.28010 -75.51981 2807 ft 165 kts 12°
2026-05-07 02:34 10.29146 -75.51905 2597 ft 163 kts
2026-05-07 02:34 10.30273 -75.51861 2383 ft 161 kts
2026-05-07 02:34 10.31387 -75.51816 2185 ft 159 kts
2026-05-07 02:35 10.32473 -75.51772 1980 ft 157 kts
2026-05-07 02:35 10.33562 -75.51728 1766 ft 156 kts
2026-05-07 02:35 10.34642 -75.51684 1576 ft 153 kts
2026-05-07 02:35 10.35669 -75.51642 1370 ft 145 kts
2026-05-07 02:36 10.36662 -75.51601 1196 ft 140 kts
2026-05-07 02:36 10.37629 -75.51565 1045 ft 139 kts
2026-05-07 02:36 10.38607 -75.51530 854 ft 141 kts
2026-05-07 02:36 10.39555 -75.51488 675 ft 134 kts
2026-05-07 02:37 10.40482 -75.51448 500 ft 136 kts
2026-05-07 02:37 10.41447 -75.51404 374 ft 139 kts
2026-05-07 02:37 10.42403 -75.51367 198 ft 137 kts
2026-05-07 02:37 10.43352 -75.51325 63 ft 135 kts
2026-05-07 02:38 10.44176 -75.51291 51 ft 88 kts
2026-05-07 02:38 10.44477 -75.51281 51 ft 22 kts
2026-05-07 02:38 10.44622 -75.51273 48 ft 11 kts
2026-05-07 02:38 10.44648 -75.51307 51 ft 6 kts 271°
2026-05-07 02:39 10.44648 -75.51349 51 ft 5 kts 264°
2026-05-07 02:39 10.44637 -75.51383 51 ft 5 kts 253°
2026-05-07 02:39 10.44635 -75.51418 51 ft 7 kts 271°
2026-05-07 02:39 10.44646 -75.51460 48 ft 6 kts 304°
2026-05-07 02:40 10.44675 -75.51485 48 ft 5 kts 329°
2026-05-07 02:40 10.44708 -75.51495 51 ft 5 kts 346°
2026-05-07 02:40 10.44726 -75.51528 51 ft 8 kts 278°
2026-05-07 02:40 10.44727 -75.51549 51 ft 0 kts 272°